Humidity-temperature Sensor

Selected Measurement Type: Relative Humidity

 
Relative Humidity [%]     6 entries per hour
Showing data from 4/4/2021 (00:00:00 Z) to 3/28/2021 (00:01:00 Z)
Previous Next [ Day | 3-Days | 7-Days ]
First Last
Prev [ Day | 3-Days | 7-Days ] Next
First Last

Start Time:     :
End Time:     :     
Time (in GMT) :00 :50 :40 :30 :20 :10
Previous Next [ Day | 3-Days | 7-Days ]
First Last
Prev [ Day | 3-Days | 7-Days ] Next
First Last


123 => good data
MM => data is determined as missing
-- => data not received/configured
Back to Top Back to Top
4/4/2021 00:00 to 23:10 86.81 85.99 85.44 85.09 84.61 84.61
4/3/2021 23:00 to 22:10 83.73 83.65 84.66 84.82 84.55 84.57
4/3/2021 22:00 to 21:10 85.50 85.89 85.29 84.84 83.98 84.35
4/3/2021 21:00 to 20:10 84.33 84.45 84.53 84.43 85.83 88.60
4/3/2021 20:00 to 19:10 88.85 89.05 89.05 88.46 88.17 89.73
4/3/2021 19:00 to 18:10 89.46 90.12 90.33 90.24 90.04 89.83
4/3/2021 18:00 to 17:10 88.66 86.65 87.47 86.92 85.58 87.20
4/3/2021 17:00 to 16:10 89.26 90.57 90.00 89.50 89.22 88.97
4/3/2021 16:00 to 15:10 88.87 88.66 88.72 88.77 88.79 88.70
4/3/2021 15:00 to 14:10 88.64 88.87 88.77 89.11 89.50 91.09
4/3/2021 14:00 to 13:10 92.14 92.28 92.07 91.85 91.79 92.16
4/3/2021 13:00 to 12:10 92.73 93.22 94.09 95.16 96.08 96.49
4/3/2021 12:00 to 11:10 95.61 94.91 96.39 97.05 97.66 97.42
4/3/2021 11:00 to 10:10 96.80 95.98 95.26 94.54 94.00 94.29
4/3/2021 10:00 to 9:10 92.53 91.85 92.65 93.33 94.31 94.66
4/3/2021 09:00 to 8:10 95.51 95.63 95.71 95.92 96.04 95.48
4/3/2021 08:00 to 7:10 95.14 95.42 95.53 96.04 96.90 98.03
4/3/2021 07:00 to 6:10 96.76 93.72 89.92 87.84 87.57 87.51
4/3/2021 06:00 to 5:10 87.66 87.16 87.51 87.22 87.24 87.04
4/3/2021 05:00 to 4:10 86.59 86.03 86.05 86.05 86.46 85.74
4/3/2021 04:00 to 3:10 85.03 85.31 85.48 86.01 85.89 86.01
4/3/2021 03:00 to 2:10 85.50 85.13 84.24 83.96 84.33 83.71
4/3/2021 02:00 to 1:10 83.44 83.13 82.17 82.02 82.13 82.56
4/3/2021 01:00 to 0:10 82.09 81.29 81.63 81.70 82.48 82.05
4/3/2021 00:00 to 23:10 80.65 80.71 80.63 81.16 80.67 81.06
4/2/2021 23:00 to 22:10 83.34 85.66 86.61 86.63 87.10 89.18
4/2/2021 22:00 to 21:10 88.93 88.70 88.13 87.98 89.73 89.44
4/2/2021 21:00 to 20:10 89.50 91.25 92.85 91.85 90.94 90.63
4/2/2021 20:00 to 19:10 90.82 90.08 89.90 90.06 90.08 90.27
4/2/2021 19:00 to 18:10 90.31 90.18 90.16 90.00 90.20 90.57
4/2/2021 18:00 to 17:10 90.57 90.55 90.70 90.92 91.09 91.27
4/2/2021 17:00 to 16:10 91.70 91.68 91.95 91.89 91.95 92.30
4/2/2021 16:00 to 15:10 92.30 92.16 92.28 92.20 92.16 92.38
4/2/2021 15:00 to 14:10 92.44 92.94 93.29 93.24 93.53 93.68
4/2/2021 14:00 to 13:10 93.96 94.19 94.35 94.44 94.62 94.64
4/2/2021 13:00 to 12:10 94.54 94.52 94.37 93.74 92.42 88.72
4/2/2021 12:00 to 11:10 86.53 86.30 86.11 86.24 85.54 86.22
4/2/2021 11:00 to 10:10 86.44 87.02 87.47 87.68 87.82 87.74
4/2/2021 10:00 to 9:10 85.60 85.33 84.88 84.92 85.87 85.93
4/2/2021 09:00 to 8:10 85.81 86.05 85.52 86.20 86.32 86.81
4/2/2021 08:00 to 7:10 87.98 87.24 87.43 87.94 88.17 87.94
4/2/2021 07:00 to 6:10 88.25 88.54 89.05 89.98 90.49 88.37
4/2/2021 06:00 to 5:10 89.24 91.85 90.86 89.79 90.35 90.57
4/2/2021 05:00 to 4:10 89.42 88.91 86.53 87.88 89.05 88.93
4/2/2021 04:00 to 3:10 87.72 87.86 88.66 88.56 88.83 88.50
4/2/2021 03:00 to 2:10 88.99 89.13 89.46 88.89 88.40 88.40
4/2/2021 02:00 to 1:10 88.07 88.40 89.22 89.26 89.50 89.24
4/2/2021 01:00 to 0:10 88.70 88.27 88.37 87.45 86.98 87.41
4/2/2021 00:00 to 23:10 86.90 87.35 88.03 88.21 87.70 87.76
4/1/2021 23:00 to 22:10 87.59 87.80 87.45 87.49 87.29 86.55
4/1/2021 22:00 to 21:10 87.12 87.06 87.00 87.29 88.09 88.46
4/1/2021 21:00 to 20:10 87.90 87.57 87.41 87.70 87.90 87.80
4/1/2021 20:00 to 19:10 87.82 87.92 87.22 86.53 86.69 86.83
4/1/2021 19:00 to 18:10 87.90 87.10 86.96 86.53 87.02 86.75
4/1/2021 18:00 to 17:10 86.75 86.24 85.72 86.11 86.94 86.71
4/1/2021 17:00 to 16:10 86.98 85.76 84.49 84.35 84.00 84.72
4/1/2021 16:00 to 15:10 86.16 87.04 86.50 86.98 86.57 86.30
4/1/2021 15:00 to 14:10 86.34 86.71 87.06 87.72 88.21 87.33
4/1/2021 14:00 to 13:10 87.14 87.18 87.94 87.41 87.63 88.05
4/1/2021 13:00 to 12:10 88.27 88.87 89.03 89.03 89.03 89.01
4/1/2021 12:00 to 11:10 89.28 88.62 88.50 88.50 88.85 88.11
4/1/2021 11:00 to 10:10 87.57 87.53 87.59 87.20 87.26 87.55
4/1/2021 10:00 to 9:10 88.03 88.17 87.04 87.33 87.53 87.43
4/1/2021 09:00 to 8:10 87.45 87.08 86.83 87.39 88.17 87.88
4/1/2021 08:00 to 7:10 87.78 87.04 86.48 85.33 85.91 85.66
4/1/2021 07:00 to 6:10 86.55 86.75 87.29 87.53 87.96 87.70
4/1/2021 06:00 to 5:10 88.93 90.59 90.98 91.40 89.18 87.90
4/1/2021 05:00 to 4:10 87.86 87.98 88.27 88.11 87.76 87.59
4/1/2021 04:00 to 3:10 87.53 87.10 87.18 89.09 89.83 90.47
4/1/2021 03:00 to 2:10 89.92 90.18 89.36 86.59 86.75 87.04
4/1/2021 02:00 to 1:10 87.12 87.06 86.53 86.28 86.01 85.97
4/1/2021 01:00 to 0:10 85.95 85.83 85.11 85.19 85.19 84.45
4/1/2021 00:00 to 23:10 83.73 82.50 82.31 82.42 82.23 81.70
3/31/2021 23:00 to 22:10 80.81 80.92 80.63 79.37 80.15 80.44
3/31/2021 22:00 to 21:10 80.73 80.87 81.02 80.48 81.04 82.09
3/31/2021 21:00 to 20:10 81.90 82.79 83.16 82.60 83.98 83.61
3/31/2021 20:00 to 19:10 82.48 82.50 81.61 82.17 83.63 84.18
3/31/2021 19:00 to 18:10 84.84 84.26 84.66 85.09 84.98 84.29
3/31/2021 18:00 to 17:10 84.06 84.10 84.24 84.63 84.78 84.33
3/31/2021 17:00 to 16:10 84.88 85.39 85.13 85.60 84.55 83.85
3/31/2021 16:00 to 15:10 84.10 84.22 84.72 84.53 84.37 83.53
3/31/2021 15:00 to 14:10 82.93 83.71 83.98 83.94 84.35 83.59
3/31/2021 14:00 to 13:10 83.44 83.63 83.89 82.97 82.31 82.93
3/31/2021 13:00 to 12:10 83.83 83.48 83.55 84.26 84.12 83.85
3/31/2021 12:00 to 11:10 84.10 84.20 84.14 84.00 84.41 85.64
3/31/2021 11:00 to 10:10 86.20 87.26 87.66 88.03 87.96 87.92
3/31/2021 10:00 to 9:10 87.70 87.59 87.00 86.71 86.55 86.24
3/31/2021 09:00 to 8:10 85.76 85.44 85.19 85.68 87.43 90.16
3/31/2021 08:00 to 7:10 91.21 91.21 90.78 88.89 87.80 87.31
3/31/2021 07:00 to 6:10 86.75 85.68 85.37 85.76 84.76 84.76
3/31/2021 06:00 to 5:10 86.98 87.96 87.04 86.13 85.23 84.57
3/31/2021 05:00 to 4:10 84.26 84.04 83.77 83.77 83.89 83.34
3/31/2021 04:00 to 3:10 83.44 83.26 82.62 83.13 83.20 83.26
3/31/2021 03:00 to 2:10 83.13 83.42 83.30 83.11 82.44 82.29
3/31/2021 02:00 to 1:10 82.74 82.00 81.82 82.56 84.55 84.16
3/31/2021 01:00 to 0:10 83.73 83.09 82.25 81.80 81.55 82.19
3/31/2021 00:00 to 23:10 83.34 82.79 82.76 83.65 83.18 82.97
3/30/2021 23:00 to 22:10 83.24 83.44 83.42 83.32 83.09 83.03
3/30/2021 22:00 to 21:10 83.09 82.72 82.62 82.95 83.03 82.87
3/30/2021 21:00 to 20:10 82.56 82.97 83.09 83.85 83.63 84.12
3/30/2021 20:00 to 19:10 84.53 84.63 84.78 84.55 84.39 84.18
3/30/2021 19:00 to 18:10 84.82 85.17 85.70 85.83 87.10 87.08
3/30/2021 18:00 to 17:10 86.83 86.30 85.70 85.15 85.33 86.09
3/30/2021 17:00 to 16:10 86.79 86.55 84.98 83.24 82.27 82.62
3/30/2021 16:00 to 15:10 82.50 82.17 81.59 81.66 81.29 81.59
3/30/2021 15:00 to 14:10 81.78 80.79 81.37 81.33 81.22 80.69
3/30/2021 14:00 to 13:10 -- -- -- -- -- --
3/30/2021 13:00 to 12:10 -- -- -- -- -- --
3/30/2021 12:00 to 11:10 -- -- -- -- -- --
3/30/2021 11:00 to 10:10 82.07 82.15 81.86 81.63 82.19 82.00
3/30/2021 10:00 to 9:10 81.39 80.38 80.85 81.72 81.82 81.43
3/30/2021 09:00 to 8:10 -- -- -- -- -- --
3/30/2021 08:00 to 7:10 -- -- -- -- -- --
3/30/2021 07:00 to 6:10 -- -- -- -- -- --
3/30/2021 06:00 to 5:10 -- -- -- -- -- --
3/30/2021 05:00 to 4:10 -- -- -- -- -- --
3/30/2021 04:00 to 3:10 88.44 88.25 88.11 88.52 89.01 89.28
3/30/2021 03:00 to 2:10 89.53 89.48 89.57 89.11 88.60 88.54
3/30/2021 02:00 to 1:10 89.11 88.83 88.56 88.37 87.29 87.63
3/30/2021 01:00 to 0:10 87.66 87.88 87.63 87.49 88.21 89.48
3/30/2021 00:00 to 23:10 89.81 89.96 89.94 90.96 91.58 91.54
3/29/2021 23:00 to 22:10 92.38 92.81 92.44 92.67 91.31 91.11
3/29/2021 22:00 to 21:10 89.32 87.70 85.66 86.59 86.59 85.50
3/29/2021 21:00 to 20:10 81.86 81.31 81.51 82.27 82.68 85.25
3/29/2021 20:00 to 19:10 83.07 81.18 80.71 80.42 79.76 81.86
3/29/2021 19:00 to 18:10 82.66 82.74 82.81 83.67 83.77 83.61
3/29/2021 18:00 to 17:10 -- -- -- -- -- --
3/29/2021 17:00 to 16:10 -- -- -- -- -- --
3/29/2021 16:00 to 15:10 -- -- -- -- -- --
3/29/2021 15:00 to 14:10 -- -- -- -- -- --
3/29/2021 14:00 to 13:10 -- -- -- -- -- --
3/29/2021 13:00 to 12:10 -- -- -- -- -- --
3/29/2021 12:00 to 11:10 84.35 84.00 83.38 83.59 83.16 83.63
3/29/2021 11:00 to 10:10 83.83 83.71 83.18 83.18 83.16 82.99
3/29/2021 10:00 to 9:10 84.12 83.98 82.74 83.38 82.87 83.13
3/29/2021 09:00 to 8:10 83.59 83.28 81.94 82.87 83.96 84.37
3/29/2021 08:00 to 7:10 83.96 84.29 84.63 84.61 84.24 85.07
3/29/2021 07:00 to 6:10 84.92 85.48 85.23 84.29 83.50 83.79
3/29/2021 06:00 to 5:10 83.13 83.01 83.26 83.63 82.83 82.74
3/29/2021 05:00 to 4:10 82.33 83.28 83.65 84.02 84.39 84.08
3/29/2021 04:00 to 3:10 83.85 83.46 84.14 84.04 84.06 85.25
3/29/2021 03:00 to 2:10 85.48 86.87 85.83 85.58 86.81 86.50
3/29/2021 02:00 to 1:10 87.10 88.15 88.68 89.20 89.48 88.89
3/29/2021 01:00 to 0:10 88.70 89.11 89.96 90.57 91.33 91.05
3/29/2021 00:00 to 23:10 90.16 89.48 89.67 89.85 89.75 90.24
3/28/2021 23:00 to 22:10 91.46 92.30 91.33 89.98 90.59 91.52
3/28/2021 22:00 to 21:10 91.60 91.11 92.22 92.14 91.44 91.48
3/28/2021 21:00 to 20:10 92.03 92.14 92.38 92.32 91.77 90.53
3/28/2021 20:00 to 19:10 89.38 93.18 92.96 93.27 92.63 91.44
3/28/2021 19:00 to 18:10 89.59 86.61 88.85 89.57 89.73 90.14
3/28/2021 18:00 to 17:10 90.70 91.19 90.84 91.31 92.05 90.66
3/28/2021 17:00 to 16:10 86.26 87.59 87.94 88.07 89.13 87.61
3/28/2021 16:00 to 15:10 86.79 86.48 86.09 85.68 85.27 85.35
3/28/2021 15:00 to 14:10 85.27 85.95 85.68 85.52 85.33 85.23
3/28/2021 14:00 to 13:10 85.62 85.62 85.74 85.70 85.72 86.18
3/28/2021 13:00 to 12:10 86.03 86.28 85.66 85.48 86.36 87.41
3/28/2021 12:00 to 11:10 87.31 87.45 87.98 87.88 88.31 88.89
3/28/2021 11:00 to 10:10 89.28 89.38 90.14 90.61 90.74 89.61
3/28/2021 10:00 to 9:10 88.42 88.62 88.40 87.88 84.76 84.61
3/28/2021 09:00 to 8:10 84.22 84.33 84.59 84.33 84.10 83.94
3/28/2021 08:00 to 7:10 84.31 84.49 84.72 84.57 84.43 83.89
3/28/2021 07:00 to 6:10 83.89 83.98 84.06 84.92 85.79 84.78
3/28/2021 06:00 to 5:10 84.76 84.96 84.74 85.17 84.68 84.86
3/28/2021 05:00 to 4:10 84.70 84.74 84.26 84.47 85.11 84.78
3/28/2021 04:00 to 3:10 84.82 85.25 85.60 86.71 86.81 87.24
3/28/2021 03:00 to 2:10 87.20 86.96 86.77 86.61 86.53 86.03
3/28/2021 02:00 to 1:10 86.07 86.57 86.11 86.36 86.26 86.05
3/28/2021 01:00 to 0:10 86.13 85.81 85.81 85.21 84.86 84.04